When you browse on this site, cookies collect data to enhance your experience and personalize the content and advertising you see.
Visit our Privacy Policy to learn more. By continuing to use the site, you agree to this use of cookies and data.
  • In Switzerland
  • List of Countries
  • For 7 days
  • Water Temperature
  • Weather Map
  • Weather Widgets
  • user-avatar
    Login

    Hourly Weather Lubango

    Today, 3 June, Wednesday

    Time Temperature Precipitation Wind Pressure Humidity
    00:00 +15°C° 0 mm 1 mps 609 mmHg 47%
    01:00 +15°C° 0 mm 1 mps 609 mmHg 49%
    02:00 +14°C° 0 mm 1 mps 608 mmHg 50%
    03:00 +14°C° 0 mm 1 mps 608 mmHg 51%
    04:00 +13°C° 0 mm 1 mps 608 mmHg 51%
    05:00 +14°C° 0 mm 1 mps 608 mmHg 51%
    06:00 +14°C° 0 mm 1 mps 608 mmHg 51%
    07:00 +14°C° 0 mm 1 mps 608 mmHg 51%
    08:00 +18°C° 0 mm 1 mps 610 mmHg 44%
    09:00 +19°C° 0 mm 2 mps 611 mmHg 38%
    10:00 +23°C° 0 mm 2 mps 612 mmHg 32%
    11:00 +24°C° 0 mm 2 mps 612 mmHg 29%
    12:00 +25°C° 0 mm 2 mps 611 mmHg 27%
    13:00 +26°C° 0 mm 2 mps 611 mmHg 25%
    14:00 +25°C° 0 mm 2 mps 610 mmHg 25%
    15:00 +25°C° 0 mm 2 mps 610 mmHg 26%
    16:00 +24°C° 0 mm 2 mps 609 mmHg 27%
    17:00 +21°C° 0 mm 2 mps 609 mmHg 35%
    18:00 +18°C° 0 mm 2 mps 608 mmHg 42%
    19:00 +15°C° 0 mm 2 mps 608 mmHg 49%
    20:00 +15°C° 0 mm 1 mps 608 mmHg 50%
    21:00 +15°C° 0 mm 1 mps 608 mmHg 50%
    22:00 +14°C° 0 mm 1 mps 608 mmHg 51%
    23:00 +14°C° 0 mm 1 mps 608 mmHg 50%

    Tomorrow, 4 June, Thursday

    Time Temperature Precipitation Wind Pressure Humidity
    00:00 +14°C° 0 mm 1 mps 608 mmHg 49%
    01:00 +14°C° 0 mm 1 mps 608 mmHg 48%
    02:00 +14°C° 0 mm 1 mps 608 mmHg 48%
    03:00 +13°C° 0 mm 1 mps 608 mmHg 47%
    04:00 +13°C° 0 mm 1 mps 608 mmHg 46%
    05:00 +13°C° 0 mm 1 mps 608 mmHg 47%
    06:00 +13°C° 0 mm 1 mps 608 mmHg 47%
    07:00 +13°C° 0 mm 1 mps 608 mmHg 47%
    08:00 +18°C° 0 mm 1 mps 610 mmHg 41%
    09:00 +21°C° 0 mm 1 mps 611 mmHg 35%
    10:00 +24°C° 0 mm 1 mps 612 mmHg 29%
    11:00 +25°C° 0 mm 1 mps 612 mmHg 27%
    12:00 +25°C° 0 mm 2 mps 612 mmHg 25%
    13:00 +26°C° 0 mm 2 mps 612 mmHg 23%
    14:00 +26°C° 0 mm 2 mps 611 mmHg 24%
    15:00 +25°C° 0 mm 2 mps 611 mmHg 25%
    16:00 +25°C° 0 mm 2 mps 610 mmHg 25%
    17:00 +21°C° 0 mm 2 mps 609 mmHg 33%
    18:00 +19°C° 0 mm 1 mps 609 mmHg 41%
    19:00 +15°C° 0 mm 1 mps 608 mmHg 48%
    20:00 +15°C° 0 mm 1 mps 608 mmHg 50%
    21:00 +14°C° 0 mm 1 mps 609 mmHg 51%
    22:00 +14°C° 0 mm 1 mps 609 mmHg 52%
    23:00 +14°C° 0 mm 1 mps 609 mmHg 51%

    Day after tomorrow, 5 June, Friday

    Time Temperature Precipitation Wind Pressure Humidity
    00:00 +14°C° 0 mm 1 mps 609 mmHg 50%
    01:00 +14°C° 0 mm 1 mps 609 mmHg 48%
    02:00 +14°C° 0 mm 1 mps 609 mmHg 48%
    03:00 +13°C° 0 mm 1 mps 608 mmHg 48%
    04:00 +13°C° 0 mm 1 mps 608 mmHg 48%
    05:00 +13°C° 0 mm 1 mps 609 mmHg 48%
    06:00 +13°C° 0 mm 1 mps 609 mmHg 48%
    07:00 +13°C° 0 mm 1 mps 609 mmHg 49%
    08:00 +16°C° 0 mm 1 mps 610 mmHg 41%
    09:00 +20°C° 0 mm 2 mps 611 mmHg 34%
    10:00 +24°C° 0 mm 2 mps 613 mmHg 27%
    11:00 +25°C° 0 mm 2 mps 613 mmHg 24%
    12:00 +26°C° 0 mm 2 mps 613 mmHg 20%
    13:00 +27°C° 0 mm 3 mps 612 mmHg 17%
    14:00 +27°C° 0 mm 3 mps 612 mmHg 18%
    15:00 +26°C° 0 mm 2 mps 611 mmHg 18%
    16:00 +26°C° 0 mm 2 mps 611 mmHg 18%
    17:00 +23°C° 0 mm 2 mps 610 mmHg 25%
    18:00 +20°C° 0 mm 1 mps 609 mmHg 31%
    19:00 +16°C° 0 mm 1 mps 609 mmHg 38%
    20:00 +15°C° 0 mm 1 mps 609 mmHg 40%
    21:00 +15°C° 0 mm 1 mps 609 mmHg 42%
    22:00 +14°C° 0 mm 1 mps 609 mmHg 44%
    23:00 +14°C° 0 mm 1 mps 609 mmHg 42%

    6 June, Saturday

    Time Temperature Precipitation Wind Pressure Humidity
    00:00 +14°C° 0 mm 1 mps 609 mmHg 40%
    01:00 +14°C° 0 mm 1 mps 609 mmHg 39%
    02:00 +14°C° 0 mm 1 mps 609 mmHg 39%
    03:00 +14°C° 0 mm 1 mps 609 mmHg 40%
    04:00 +13°C° 0 mm 1 mps 609 mmHg 40%
    05:00 +14°C° 0 mm 1 mps 609 mmHg 41%
    06:00 +14°C° 0 mm 1 mps 609 mmHg 42%
    07:00 +14°C° 0 mm 1 mps 609 mmHg 43%
    08:00 +17°C° 0 mm 2 mps 610 mmHg 37%
    09:00 +20°C° 0 mm 2 mps 612 mmHg 32%
    10:00 +24°C° 0 mm 3 mps 613 mmHg 27%
    11:00 +25°C° 0 mm 3 mps 613 mmHg 25%
    12:00 +26°C° 0 mm 3 mps 612 mmHg 23%
    13:00 +27°C° 0 mm 3 mps 612 mmHg 21%
    14:00 +27°C° 0 mm 2 mps 612 mmHg 20%
    15:00 +27°C° 0 mm 2 mps 611 mmHg 20%
    16:00 +27°C° 0 mm 2 mps 611 mmHg 20%
    17:00 +24°C° 0 mm 1 mps 610 mmHg 27%
    18:00 +21°C° 0 mm 1 mps 609 mmHg 33%
    19:00 +18°C° 0 mm 1 mps 609 mmHg 39%
    20:00 +16°C° 0 mm 1 mps 609 mmHg 39%
    21:00 +16°C° 0 mm 1 mps 609 mmHg 39%
    22:00 +15°C° 0 mm 1 mps 609 mmHg 40%
    23:00 +15°C° 0 mm 2 mps 609 mmHg 40%

    7 June, Sunday

    Time Temperature Precipitation Wind Pressure Humidity
    00:00 +15°C° 0 mm 2 mps 609 mmHg 40%
    01:00 +14°C° 0 mm 2 mps 609 mmHg 41%
    02:00 +14°C° 0 mm 2 mps 609 mmHg 41%
    03:00 +14°C° 0 mm 2 mps 608 mmHg 41%
    04:00 +14°C° 0 mm 2 mps 608 mmHg 40%
    05:00 +14°C° 0 mm 2 mps 608 mmHg 40%
    06:00 +13°C° 0 mm 2 mps 609 mmHg 41%
    07:00 +13°C° 0 mm 2 mps 609 mmHg 41%
    08:00 +16°C° 0 mm 3 mps 610 mmHg 36%
    09:00 +19°C° 0 mm 3 mps 611 mmHg 31%
    10:00 +22°C° 0 mm 4 mps 612 mmHg 26%
    11:00 +24°C° 0 mm 3 mps 612 mmHg 24%
    12:00 +25°C° 0 mm 3 mps 612 mmHg 23%
    13:00 +27°C° 0 mm 2 mps 612 mmHg 21%
    14:00 +26°C° 0 mm 2 mps 611 mmHg 21%
    15:00 +26°C° 0 mm 2 mps 611 mmHg 21%
    16:00 +26°C° 0 mm 1 mps 611 mmHg 21%
    17:00 +23°C° 0 mm 1 mps 610 mmHg 26%
    18:00 +20°C° 0 mm 1 mps 609 mmHg 31%
    19:00 +16°C° 0 mm 1 mps 609 mmHg 36%
    20:00 +16°C° 0 mm 1 mps 609 mmHg 36%
    21:00 +15°C° 0 mm 1 mps 609 mmHg 36%
    22:00 +15°C° 0 mm 1 mps 609 mmHg 36%
    23:00 +15°C° 0 mm 1 mps 609 mmHg 36%

    8 June, Monday

    Time Temperature Precipitation Wind Pressure Humidity
    00:00 +14°C° 0 mm 1 mps 609 mmHg 36%
    01:00 +14°C° 0 mm 1 mps 608 mmHg 36%
    02:00 +14°C° 0 mm 1 mps 608 mmHg 37%
    03:00 +13°C° 0 mm 2 mps 608 mmHg 37%
    04:00 +13°C° 0 mm 2 mps 607 mmHg 38%
    05:00 +13°C° 0 mm 2 mps 608 mmHg 38%
    06:00 +13°C° 0 mm 2 mps 608 mmHg 38%
    07:00 +13°C° 0 mm 2 mps 608 mmHg 38%
    08:00 +16°C° 0 mm 2 mps 609 mmHg 33%
    09:00 +19°C° 0 mm 2 mps 610 mmHg 29%
    10:00 +23°C° 0 mm 2 mps 612 mmHg 24%
    11:00 +25°C° 0 mm 2 mps 611 mmHg 22%
    12:00 +26°C° 0 mm 1 mps 611 mmHg 21%
    13:00 +27°C° 0 mm 1 mps 611 mmHg 19%
    14:00 +27°C° 0 mm 1 mps 611 mmHg 20%
    15:00 +26°C° 0 mm 1 mps 610 mmHg 20%
    16:00 +26°C° 0 mm 1 mps 610 mmHg 20%
    17:00 +23°C° 0 mm 1 mps 609 mmHg 26%
    18:00 +20°C° 0 mm 1 mps 608 mmHg 31%
    19:00 +16°C° 0 mm 1 mps 608 mmHg 37%
    20:00 +15°C° 0 mm 1 mps 608 mmHg 37%
    21:00 +15°C° 0 mm 1 mps 608 mmHg 38%
    22:00 +14°C° 0 mm 1 mps 608 mmHg 39%
    23:00 +14°C° 0 mm 1 mps 608 mmHg 38%
    Show more